Погода в Маракане

Россия / Иркутская область     58°42′00″N   114°34′57″E
темп.,
°C
ветер,
м/с
пор.,
м/с
влажн.,
%
обл.,
%
осадки,
мм/ч
давл.,
гПа
погр.,
м
27 января, ср
ср2723:00−32с1186100 0.0 104019
02:00−33ссз1185100 0.0 104119
05:00−35ссз1182100 0.0 104219
08:00−36ссз1178100 0.0 104319
11:00−33з1178100 0.0 104219
14:00−32зюз1282100 0.0 104128
17:00−36зсз1177100 0.0 104319
20:00−38зсз1179100 0.0 104319
28 января, чт
чт2823:00−41зюз018747 0.0 104119
02:00−41всв008753 0.0 103918
05:00−41в118745 0.0 103719
08:00−41в118224 0.0 103518
11:00−36в11770 0.0 103221
14:00−34вюв11804 0.0 102954
17:00−38в118228 0.0 102819
20:00−39в118436 0.0 102819
29 января, пт
пт2923:00−40в119135 0.0 102719
02:00−37в118962 0.0 102819
05:00−37в019792 0.0 102919
08:00−38в0110089 0.0 103119
11:00−36ююв009792 0.0 103220
14:00−34ююз119572 0.0 103255
17:00−39юв001007 0.0 103419
20:00−40в1110014 0.0 103519
30 января, сб
сб3023:00−41всв1110026 0.0 103518
02:00−41в1110046 0.0 103518
05:00−42в1110044 0.0 103518
08:00−41в1110066 0.0 103518
11:00−37вюв1198100 0.0 103336
14:00−35ююз119699 0.0 103288
17:00−35юз119895 0.1 103219
20:00−35зюз119998 0.1 103319
31 января, вс
вс3123:00−36з1199100 0.1 103219
02:00−36зсз1199100 0.3 103319
05:00−36зсз2297100 0.1 103419
08:00−38зсз2296100 0.1 103718
11:00−38зсз2294100 0.0 1039143
14:00−38з2289100 0.1 1040329
17:00−43зсз2298100 0.0 104318
20:00−45зсз229986 0.0 104618